sat.trackr.live / text

‹ back to catalog

COSMOS 2576

NORAD 59773 · 2024-092A

PAYLOAD ACTIVE UNKNOWN

§ Identity

Operator
Country
CIS
Launch date
2024-05-16
Launch site
PLMSC
Launch vehicle
Mass (kg)
RCS (m²)

External: N2YO · Heavens-Above · Gunter

§ Orbital elements

Epoch: 2026-05-24T17:51:20.875968Z

Period
94.76 min
Inclination
97.4354°
Eccentricity
0.0014321
Mean motion
15.19599408 rev/d
Perigee alt
497.2 km
Apogee alt
516.9 km
Semi-major
6,885.2 km
B*
2.8772e-4
RAAN
261.0547°
Arg perigee
95.4793°
Mean anomaly
264.8075°
Rev number
11,282

§ Raw data

COSMOS 25761 59773U 24092A   26144.74399162  .00006074  00000+0  28772-3 0  99912 59773  97.4354 261.0547 0014321  95.4793 264.8075 15.19599408112825

JSON: /api/v1/satellites/59773 · /tle

For live sub-satellite position, see the globe view (requires WebGL).

§ Visibility from observer

Set your observer location to see the next 7 days of passes ≥ 10°. The values pass through the URL so the page stays shareable.

No JS? Fill the form by hand. The geolocation button needs JavaScript.

§ Radio — SatNOGS DB

ModeDescriptionDownlinkUplink
FM S-band telemetry 2.284 GHz

1 transmitter · refreshed weekly from db.satnogs.org